Manistique, MI

7:22 PM EDT on April 28, 2017 (GMT -0400)
Schoolcraft County

Weather History for KISQ - March, 2014

Change the Weather History Date:

Sunday, March 9, 2014

  Actual Average Record
Temperature  
Mean Temperature 15 °F -  
Max Temperature 32 °F 34 °F 47 °F (1955)
Min Temperature -2 °F 14 °F -22 °F (1972)
Degree Days  
Heating Degree Days 50    
Moisture  
Dew Point 13 °F    
Average Humidity 80    
Maximum Humidity 90    
Minimum Humidity 69    
Precipitation  
Precipitation 0.00 in - - ()
Sea Level Pressure  
Sea Level Pressure 29.85 in    
Wind  
Wind Speed 5 mph (SSW)    
Max Wind Speed 23 mph    
Max Gust Speed 36 mph    
Visibility 10 miles    
Events      
Averages and records for this station are not official NWS values.
T = Trace of Precipitation, MM = Missing Value Source: NWS Daily Summary

Daily Weather History Graph

Daily Weather History Graph

Search for Another Location

Airport or City:

Trip Planner

Search our weather history database for the weather conditions in past years. The results will help you decide how hot, cold, wet, or windy it might be!

Date:

Astronomy

Mar. 09, 2014 Rise Set
Actual Time 8:08 AM EDT 7:42 PM EDT
Civil Twilight 7:38 AM EDT 8:12 PM EDT
Nautical Twilight 7:04 AM EDT 8:46 PM EDT
Astronomical Twilight 6:29 AM EDT 9:21 PM EDT
Moon 1:21 PM EDT (3/9) 3:47 AM EDT (3/9)
Length of Visible Light 12h 33m
Length of Day
11h 33m
First Quarter, 61% of the Moon is Illuminated
Mar 9
First Quarter
Mar 16
Full
Mar 23
Last Quarter
Mar 30
New
Apr 7
First Quarter

Hourly Weather History & Observations

Time (EDT) Temp. Windchill Dew Point Humidity Pressure Visibility Wind Dir Wind Speed Gust Speed Precip Events Conditions
12:15 AM -0.0 °F - -3.1 °F 87% 30.13 in 10.0 mi Calm Calm - N/A   Clear
12:34 AM -0.2 °F - -3.6 °F 85% 30.13 in 10.0 mi Calm Calm - N/A   Clear
12:55 AM -2.7 °F - -6.2 °F 85% 30.13 in 10.0 mi Calm Calm - N/A   Clear
1:15 AM -0.0 °F - -3.1 °F 87% 30.12 in 10.0 mi Calm Calm - N/A   Clear
1:34 AM -0.2 °F - -3.6 °F 85% 30.12 in 10.0 mi Calm Calm - N/A   Clear
1:55 AM -2.9 °F - -6.7 °F 84% 30.11 in 10.0 mi Calm Calm - N/A   Clear
3:15 AM -1.7 °F - -6.0 °F 82% 30.11 in 10.0 mi Calm Calm - N/A   Clear
3:34 AM -1.7 °F - -5.3 °F 85% 30.10 in 10.0 mi Calm Calm - N/A   Scattered Clouds
3:55 AM -0.8 °F - -4.2 °F 85% 30.09 in 10.0 mi Calm Calm - N/A   Clear
4:14 AM -2.4 °F - -6.7 °F 82% 30.08 in 10.0 mi Calm Calm - N/A   Clear
4:35 AM -0.8 °F -8.7 °F -4.5 °F 84% 30.07 in 10.0 mi NW 3.5 mph - N/A   Clear
4:55 AM -0.6 °F - -4.0 °F 85% 30.06 in 10.0 mi Calm Calm - N/A   Clear
5:14 AM -2.9 °F - -6.9 °F 83% 30.06 in 10.0 mi Calm Calm - N/A   Clear
5:35 AM -1.1 °F - -5.1 °F 83% 30.06 in 10.0 mi Calm Calm - N/A   Clear
5:55 AM -2.9 °F - -7.4 °F 81% 30.06 in 10.0 mi Calm Calm - N/A   Clear
6:14 AM -1.7 °F - -5.8 °F 83% 30.06 in 10.0 mi Calm Calm - N/A   Clear
6:35 AM -2.4 °F - -6.9 °F 81% 30.05 in 10.0 mi Calm Calm - N/A   Clear
6:55 AM -1.8 °F - -6.5 °F 80% 30.05 in 10.0 mi Calm Calm - N/A   Clear
7:14 AM -0.2 °F - -4.5 °F 82% 30.04 in 10.0 mi Calm Calm - N/A   Clear
7:35 AM 0.3 °F - -4.2 °F 81% 30.04 in 10.0 mi Calm Calm - N/A   Clear
7:54 AM 1.6 °F - -2.9 °F 81% 30.04 in 10.0 mi Calm Calm - N/A   Clear
8:15 AM 3.0 °F - -1.7 °F 81% 30.03 in 10.0 mi Calm Calm - N/A   Clear
8:35 AM 6.4 °F - 2.8 °F 85% 30.03 in 10.0 mi Calm Calm - N/A   Scattered Clouds
8:54 AM 8.1 °F 1.4 °F 5.0 °F 87% 30.02 in 10.0 mi South 3.5 mph - N/A   Overcast
9:15 AM 11.3 °F 3.3 °F 7.5 °F 85% 30.01 in 10.0 mi South 4.6 mph - N/A   Overcast
9:34 AM 12.7 °F 2.4 °F 9.0 °F 85% 30.00 in 10.0 mi South 6.9 mph - N/A   Overcast
9:55 AM 14.9 °F 4.0 °F 9.5 °F 79% 30.01 in 10.0 mi SSW 8.1 mph - N/A   Overcast
10:14 AM 15.8 °F 4.2 °F 9.5 °F 76% 29.99 in 10.0 mi SSW 9.2 mph - N/A   Mostly Cloudy
10:35 AM 16.5 °F 6.0 °F 9.7 °F 74% 29.98 in 10.0 mi SSW 8.1 mph - N/A   Overcast
10:55 AM 18.3 °F 7.3 °F 11.3 °F 74% 29.97 in 10.0 mi SSW 9.2 mph - N/A   Mostly Cloudy
11:14 AM 19.2 °F 9.3 °F 11.3 °F 71% 29.95 in 10.0 mi SSW 8.1 mph - N/A   Overcast
11:35 AM 21.7 °F 10.8 °F 15.1 °F 76% 29.93 in 10.0 mi SSW 10.4 mph - N/A   Overcast
11:55 AM 24.1 °F 11.5 °F 17.2 °F 75% 29.91 in 10.0 mi South 15.0 mph - N/A   Mostly Cloudy
12:14 PM 25.2 °F 13.3 °F 17.4 °F 72% 29.89 in 10.0 mi South 13.8 mph 19.6 mph N/A   Overcast
12:35 PM 26.2 °F 13.4 °F 17.6 °F 70% 29.88 in 10.0 mi SSW 17.3 mph 25.3 mph N/A   Overcast
12:55 PM 26.6 °F 14.3 °F 18.3 °F 71% 29.87 in 10.0 mi SSW 16.1 mph 24.2 mph N/A   Overcast
1:14 PM 26.6 °F 13.8 °F 18.1 °F 70% 29.86 in 10.0 mi SSW 17.3 mph 25.3 mph N/A   Overcast
1:35 PM 26.8 °F 14.1 °F 18.1 °F 70% 29.85 in 10.0 mi SSW 17.3 mph 21.9 mph N/A   Overcast
1:54 PM 27.1 °F 14.1 °F 18.3 °F 69% 29.83 in 10.0 mi South 18.4 mph 23.0 mph N/A   Overcast
2:15 PM 27.1 °F 14.1 °F 20.5 °F 76% 29.81 in 10.0 mi South 18.4 mph 27.6 mph N/A   Overcast
2:34 PM 27.5 °F 15.4 °F 20.8 °F 76% 29.79 in 10.0 mi SSW 16.1 mph 28.8 mph N/A   Overcast
2:55 PM 27.9 °F 15.1 °F 21.4 °F 77% 29.77 in 10.0 mi SSW 18.4 mph 27.6 mph N/A   Overcast
3:15 PM 27.9 °F 15.1 °F 20.7 °F 74% 29.75 in 7.0 mi SSW 18.4 mph 29.9 mph N/A   Overcast
3:35 PM 28.2 °F 15.2 °F 22.5 °F 79% 29.73 in 10.0 mi SSW 19.6 mph 28.8 mph N/A   Overcast
3:55 PM 28.2 °F 14.8 °F 21.7 °F 77% 29.71 in 7.0 mi SSW 20.7 mph 33.4 mph N/A   Overcast
4:14 PM 28.4 °F 15.1 °F 21.9 °F 77% 29.70 in 7.0 mi SSW 20.7 mph 35.7 mph N/A   Overcast
4:35 PM 28.8 °F 14.9 °F 22.8 °F 78% 29.67 in 7.0 mi SSW 23.0 mph 29.9 mph N/A   Overcast
4:55 PM 28.9 °F 15.1 °F 23.5 °F 80% 29.66 in 5.0 mi SSW 23.0 mph 29.9 mph N/A   Haze
5:14 PM 29.1 °F 16.0 °F 23.7 °F 80% 29.65 in 5.0 mi SSW 20.7 mph 33.4 mph N/A   Haze
5:35 PM 29.1 °F 15.7 °F 24.1 °F 81% 29.63 in 5.0 mi SSW 21.9 mph 32.2 mph N/A   Haze
5:55 PM 29.3 °F 15.9 °F 24.6 °F 83% 29.63 in 5.0 mi SSW 21.9 mph 31.1 mph N/A   Haze
6:14 PM 29.3 °F 17.7 °F 25.2 °F 85% 29.64 in 7.0 mi SW 16.1 mph 31.1 mph N/A   Mostly Cloudy
6:35 PM 29.7 °F 17.1 °F 25.3 °F 84% 29.62 in 7.0 mi SSW 19.6 mph 29.9 mph N/A   Overcast
6:55 PM 30.0 °F 19.5 °F 25.7 °F 84% 29.62 in 10.0 mi SSW 13.8 mph 24.2 mph N/A   Mostly Cloudy
7:15 PM 30.7 °F 20.9 °F 25.7 °F 82% 29.63 in 10.0 mi SW 12.7 mph 20.7 mph N/A   Mostly Cloudy
7:35 PM 31.1 °F 23.7 °F 25.7 °F 80% 29.63 in 10.0 mi SSW 8.1 mph - N/A   Clear
7:54 PM 31.1 °F 23.1 °F 25.7 °F 80% 29.62 in 10.0 mi SSW 9.2 mph - N/A   Clear
8:15 PM 30.9 °F 24.3 °F 26.2 °F 83% 29.63 in 10.0 mi SSW 6.9 mph - N/A   Clear
8:35 PM 30.7 °F 24.9 °F 26.4 °F 84% 29.63 in 10.0 mi SSW 5.8 mph - N/A   Clear
8:54 PM 30.9 °F 25.2 °F 26.4 °F 83% 29.63 in 10.0 mi SSW 5.8 mph - N/A   Scattered Clouds
9:15 PM 30.7 °F 24.9 °F 25.9 °F 82% 29.63 in 10.0 mi SSW 5.8 mph - N/A   Scattered Clouds
9:35 PM 30.9 °F 26.2 °F 25.5 °F 80% 29.63 in 10.0 mi SW 4.6 mph - N/A   Clear
9:54 PM 31.5 °F 24.9 °F 25.5 °F 79% 29.63 in 10.0 mi SSW 6.9 mph - N/A   Scattered Clouds
10:15 PM 32.0 °F 25.6 °F 25.7 °F 78% 29.63 in 10.0 mi SSW 6.9 mph - N/A   Clear
10:35 PM 31.1 °F 26.4 °F 25.9 °F 81% 29.63 in 10.0 mi SSW 4.6 mph - N/A   Clear
10:55 PM 31.6 °F 27.0 °F 26.4 °F 81% 29.63 in 10.0 mi SSW 4.6 mph - N/A   Scattered Clouds
11:15 PM 31.8 °F 26.2 °F 26.2 °F 80% 29.63 in 10.0 mi SSW 5.8 mph - N/A   Scattered Clouds
11:34 PM 31.5 °F 26.8 °F 26.4 °F 82% 29.62 in 10.0 mi SSW 4.6 mph - N/A   Scattered Clouds
11:55 PM 30.6 °F - 26.6 °F 85% 29.63 in 10.0 mi Calm Calm - N/A   Clear
12:15 AM 30.2 °F - 26.6 °F 86% 29.63 in 10.0 mi Calm Calm - N/A   Scattered Clouds
12:34 AM 30.6 °F - 26.6 °F 85% 29.63 in 10.0 mi Calm Calm - N/A   Scattered Clouds
12:55 AM 28.4 °F - 25.9 °F 90% 29.63 in 10.0 mi Calm Calm - N/A   Scattered Clouds